Year,Month,Day,Hour,Minute,Value (Times are PST for temperature in C)
2010,09,03,00,00,14.20
2010,09,03,00,01,14.20
2010,09,03,00,02,14.10
2010,09,03,00,03,14.10
2010,09,03,00,04,14.10
2010,09,03,00,05,14.10
2010,09,03,00,06,14.00
2010,09,03,00,07,14.00
2010,09,03,00,08,14.00
2010,09,03,00,09,13.90
2010,09,03,00,10,13.90
2010,09,03,00,11,13.90
2010,09,03,00,12,13.90
2010,09,03,00,13,13.90
2010,09,03,00,14,13.90
2010,09,03,00,15,13.90
2010,09,03,00,16,13.90
2010,09,03,00,17,14.00
2010,09,03,00,18,14.00
2010,09,03,00,19,14.00
2010,09,03,00,20,13.90
2010,09,03,00,21,13.90
2010,09,03,00,22,13.90
2010,09,03,00,23,13.90
2010,09,03,00,24,13.90
2010,09,03,00,25,13.90
2010,09,03,00,26,13.90
2010,09,03,00,27,13.90
2010,09,03,00,28,13.80
2010,09,03,00,29,13.80
2010,09,03,00,30,13.80
2010,09,03,00,31,13.80
2010,09,03,00,32,13.80
2010,09,03,00,33,13.80
2010,09,03,00,34,13.70
2010,09,03,00,35,13.70
2010,09,03,00,36,13.70
2010,09,03,00,37,13.70
2010,09,03,00,38,13.70
2010,09,03,00,39,13.70
2010,09,03,00,40,13.70
2010,09,03,00,41,13.60
2010,09,03,00,42,13.60
2010,09,03,00,43,13.60
2010,09,03,00,44,13.60
2010,09,03,00,45,13.60
2010,09,03,00,46,13.60
2010,09,03,00,47,13.60
2010,09,03,00,48,13.60
2010,09,03,00,49,13.60
2010,09,03,00,50,13.60
2010,09,03,00,51,13.60
2010,09,03,00,52,13.60
2010,09,03,00,53,13.70
2010,09,03,00,54,13.70
2010,09,03,00,55,13.70
2010,09,03,00,56,13.70
2010,09,03,00,57,13.70
2010,09,03,00,58,13.70
2010,09,03,00,59,13.70
2010,09,03,01,00,13.70
2010,09,03,01,01,13.70
2010,09,03,01,02,13.70
2010,09,03,01,03,13.70
2010,09,03,01,04,13.70
2010,09,03,01,05,13.70
2010,09,03,01,06,13.70
2010,09,03,01,07,13.70
2010,09,03,01,08,13.70
2010,09,03,01,09,13.70
2010,09,03,01,10,13.70
2010,09,03,01,11,13.70
2010,09,03,01,12,13.70
2010,09,03,01,13,13.70
2010,09,03,01,14,13.70
2010,09,03,01,15,13.60
2010,09,03,01,16,13.60
2010,09,03,01,17,13.60
2010,09,03,01,18,13.60
2010,09,03,01,19,13.60
2010,09,03,01,20,13.60
2010,09,03,01,21,13.50
2010,09,03,01,22,13.50
2010,09,03,01,23,13.50
2010,09,03,01,24,13.40
2010,09,03,01,25,13.40
2010,09,03,01,26,13.40
2010,09,03,01,27,13.40
2010,09,03,01,28,13.40
2010,09,03,01,29,13.30
2010,09,03,01,30,13.30
2010,09,03,01,31,13.30
2010,09,03,01,32,13.30
2010,09,03,01,33,13.30
2010,09,03,01,34,13.30
2010,09,03,01,35,13.30
2010,09,03,01,36,13.30
2010,09,03,01,37,13.20
2010,09,03,01,38,13.20
2010,09,03,01,39,13.20
2010,09,03,01,40,13.20
2010,09,03,01,41,13.20
2010,09,03,01,42,13.20
2010,09,03,01,43,13.20
2010,09,03,01,44,13.20
2010,09,03,01,45,13.20
2010,09,03,01,46,13.20
2010,09,03,01,47,13.20
2010,09,03,01,48,13.20
2010,09,03,01,49,13.20
2010,09,03,01,50,13.20
2010,09,03,01,51,13.30
2010,09,03,01,52,13.30
2010,09,03,01,53,13.30
2010,09,03,01,54,13.30
2010,09,03,01,55,13.30
2010,09,03,01,56,13.30
2010,09,03,01,57,13.30
2010,09,03,01,58,13.30
2010,09,03,01,59,13.40
2010,09,03,02,00,13.40
2010,09,03,02,01,13.30
2010,09,03,02,02,13.30
2010,09,03,02,03,13.30
2010,09,03,02,04,13.30
2010,09,03,02,05,13.30
2010,09,03,02,06,13.30
2010,09,03,02,07,13.30
2010,09,03,02,08,13.30
2010,09,03,02,09,13.30
2010,09,03,02,10,13.30
2010,09,03,02,11,13.30
2010,09,03,02,12,13.30
2010,09,03,02,13,13.30
2010,09,03,02,14,13.30
2010,09,03,02,15,13.20
2010,09,03,02,16,13.20
2010,09,03,02,17,13.20
2010,09,03,02,18,13.20
2010,09,03,02,19,13.20
2010,09,03,02,20,13.20
2010,09,03,02,21,13.20
2010,09,03,02,22,13.20
2010,09,03,02,23,13.20
2010,09,03,02,24,13.20
2010,09,03,02,25,13.20
2010,09,03,02,26,13.20
2010,09,03,02,27,13.20
2010,09,03,02,28,13.20
2010,09,03,02,29,13.20
2010,09,03,02,30,13.20
2010,09,03,02,31,13.20
2010,09,03,02,32,13.20
2010,09,03,02,33,13.20
2010,09,03,02,34,13.20
2010,09,03,02,35,13.20
2010,09,03,02,36,13.20
2010,09,03,02,37,13.20
2010,09,03,02,38,13.20
2010,09,03,02,39,13.20
2010,09,03,02,40,13.20
2010,09,03,02,41,13.20
2010,09,03,02,42,13.20
2010,09,03,02,43,13.20
2010,09,03,02,44,13.20
2010,09,03,02,45,13.20
2010,09,03,02,46,13.20
2010,09,03,02,47,13.20
2010,09,03,02,48,13.20
2010,09,03,02,49,13.20
2010,09,03,02,50,13.20
2010,09,03,02,51,13.20
2010,09,03,02,52,13.20
2010,09,03,02,53,13.20
2010,09,03,02,54,13.20
2010,09,03,02,55,13.10
2010,09,03,02,56,13.10
2010,09,03,02,57,13.10
2010,09,03,02,58,13.10
2010,09,03,02,59,13.10
2010,09,03,03,00,13.10
2010,09,03,03,01,13.00
2010,09,03,03,02,13.00
2010,09,03,03,03,13.00
2010,09,03,03,04,12.90
2010,09,03,03,05,12.90
2010,09,03,03,06,12.90
2010,09,03,03,07,12.90
2010,09,03,03,08,12.90
2010,09,03,03,09,12.90
2010,09,03,03,10,12.90
2010,09,03,03,11,12.80
2010,09,03,03,12,12.80
2010,09,03,03,13,12.80
2010,09,03,03,14,12.80
2010,09,03,03,15,12.80
2010,09,03,03,16,12.80
2010,09,03,03,17,12.80
2010,09,03,03,18,12.70
2010,09,03,03,19,12.70
2010,09,03,03,20,12.70
2010,09,03,03,21,12.70
2010,09,03,03,22,12.70
2010,09,03,03,23,12.70
2010,09,03,03,24,12.70
2010,09,03,03,25,12.60
2010,09,03,03,26,12.60
2010,09,03,03,27,12.60
2010,09,03,03,28,12.60
2010,09,03,03,29,12.60
2010,09,03,03,30,12.60
2010,09,03,03,31,12.60
2010,09,03,03,32,12.60
2010,09,03,03,33,12.60
2010,09,03,03,34,12.50
2010,09,03,03,35,12.50
2010,09,03,03,36,12.50
2010,09,03,03,37,12.50
2010,09,03,03,38,12.40
2010,09,03,03,39,12.40
2010,09,03,03,40,12.40
2010,09,03,03,41,12.40
2010,09,03,03,42,12.40
2010,09,03,03,43,12.40
2010,09,03,03,44,12.40
2010,09,03,03,45,12.40
2010,09,03,03,46,12.40
2010,09,03,03,47,12.40
2010,09,03,03,48,12.40
2010,09,03,03,49,12.40
2010,09,03,03,50,12.40
2010,09,03,03,51,12.40
2010,09,03,03,52,12.40
2010,09,03,03,53,12.40
2010,09,03,03,54,12.40
2010,09,03,03,55,12.30
2010,09,03,03,56,12.30
2010,09,03,03,57,12.30
2010,09,03,03,58,12.30
2010,09,03,03,59,12.30
2010,09,03,04,00,12.30
2010,09,03,04,01,12.30
2010,09,03,04,02,12.30
2010,09,03,04,03,12.30
2010,09,03,04,04,12.20
2010,09,03,04,05,12.20
2010,09,03,04,06,12.20
2010,09,03,04,07,12.20
2010,09,03,04,08,12.20
2010,09,03,04,09,12.20
2010,09,03,04,10,12.10
2010,09,03,04,11,12.10
2010,09,03,04,12,12.10
2010,09,03,04,13,12.10
2010,09,03,04,14,12.10
2010,09,03,04,15,12.10
2010,09,03,04,16,12.10
2010,09,03,04,17,12.10
2010,09,03,04,18,12.10
2010,09,03,04,19,12.10
2010,09,03,04,20,12.10
2010,09,03,04,21,12.10
2010,09,03,04,22,12.10
2010,09,03,04,23,12.10
2010,09,03,04,24,12.10
2010,09,03,04,25,12.10
2010,09,03,04,26,12.00
2010,09,03,04,27,12.00
2010,09,03,04,28,12.00
2010,09,03,04,29,11.90
2010,09,03,04,30,11.90
2010,09,03,04,31,11.90
2010,09,03,04,32,11.80
2010,09,03,04,33,11.80
2010,09,03,04,34,11.80
2010,09,03,04,35,11.80
2010,09,03,04,36,11.80
2010,09,03,04,37,11.80
2010,09,03,04,38,11.80
2010,09,03,04,39,11.80
2010,09,03,04,40,11.70
2010,09,03,04,41,11.70
2010,09,03,04,42,11.70
2010,09,03,04,43,11.70
2010,09,03,04,44,11.70
2010,09,03,04,45,11.70
2010,09,03,04,46,11.70
2010,09,03,04,47,11.70
2010,09,03,04,48,11.70
2010,09,03,04,49,11.70
2010,09,03,04,50,11.60
2010,09,03,04,51,11.60
2010,09,03,04,52,11.60
2010,09,03,04,53,11.60
2010,09,03,04,54,11.50
2010,09,03,04,55,11.50
2010,09,03,04,56,11.50
2010,09,03,04,57,11.50
2010,09,03,04,58,11.50
2010,09,03,04,59,11.50
2010,09,03,05,00,11.40
2010,09,03,05,01,11.40
2010,09,03,05,02,11.40
2010,09,03,05,03,11.40
2010,09,03,05,04,11.40
2010,09,03,05,05,11.40
2010,09,03,05,06,11.40
2010,09,03,05,07,11.40
2010,09,03,05,08,11.40
2010,09,03,05,09,11.40
2010,09,03,05,10,11.40
2010,09,03,05,11,11.40
2010,09,03,05,12,11.40
2010,09,03,05,13,11.40
2010,09,03,05,14,11.40
2010,09,03,05,15,11.40
2010,09,03,05,16,11.30
2010,09,03,05,17,11.30
2010,09,03,05,18,11.30
2010,09,03,05,19,11.30
2010,09,03,05,20,11.30
2010,09,03,05,21,11.30
2010,09,03,05,22,11.30
2010,09,03,05,23,11.30
2010,09,03,05,24,11.20
2010,09,03,05,25,11.20
2010,09,03,05,26,11.20
2010,09,03,05,27,11.20
2010,09,03,05,28,11.20
2010,09,03,05,29,11.20
2010,09,03,05,30,11.20
2010,09,03,05,31,11.20
2010,09,03,05,32,11.20
2010,09,03,05,33,11.20
2010,09,03,05,34,11.20
2010,09,03,05,35,11.10
2010,09,03,05,36,11.10
2010,09,03,05,37,11.10
2010,09,03,05,38,11.10
2010,09,03,05,39,11.10
2010,09,03,05,40,11.10
2010,09,03,05,41,11.10
2010,09,03,05,42,11.10
2010,09,03,05,43,11.00
2010,09,03,05,44,11.00
2010,09,03,05,45,11.00
2010,09,03,05,46,11.00
2010,09,03,05,47,11.00
2010,09,03,05,48,10.90
2010,09,03,05,49,10.90
2010,09,03,05,50,10.90
2010,09,03,05,51,10.90
2010,09,03,05,52,10.90
2010,09,03,05,53,10.90
2010,09,03,05,54,10.80
2010,09,03,05,55,10.80
2010,09,03,05,56,10.80
2010,09,03,05,57,10.80
2010,09,03,05,58,10.80
2010,09,03,05,59,10.80
2010,09,03,06,00,10.80
2010,09,03,06,01,10.80
2010,09,03,06,02,10.70
2010,09,03,06,03,10.70
2010,09,03,06,04,10.70
2010,09,03,06,05,10.70
2010,09,03,06,06,10.70
2010,09,03,06,07,10.70
2010,09,03,06,08,10.70
2010,09,03,06,09,10.70
2010,09,03,06,10,10.70
2010,09,03,06,11,10.70
2010,09,03,06,12,10.70
2010,09,03,06,13,10.70
2010,09,03,06,14,10.80
2010,09,03,06,15,10.80
2010,09,03,06,16,10.80
2010,09,03,06,17,10.80
2010,09,03,06,18,10.80
2010,09,03,06,19,10.80
2010,09,03,06,20,10.80
2010,09,03,06,21,10.80
2010,09,03,06,22,10.80
2010,09,03,06,23,10.70
2010,09,03,06,24,10.70
2010,09,03,06,25,10.70
2010,09,03,06,26,10.80
2010,09,03,06,27,10.80
2010,09,03,06,28,10.80
2010,09,03,06,29,10.80
2010,09,03,06,30,10.80
2010,09,03,06,31,10.80
2010,09,03,06,32,10.70
2010,09,03,06,33,10.70
2010,09,03,06,34,10.70
2010,09,03,06,35,10.70
2010,09,03,06,36,10.70
2010,09,03,06,37,10.70
2010,09,03,06,38,10.70
2010,09,03,06,39,10.70
2010,09,03,06,40,10.60
2010,09,03,06,41,10.60
2010,09,03,06,42,10.60
2010,09,03,06,43,10.60
2010,09,03,06,44,10.50
2010,09,03,06,45,10.50
2010,09,03,06,46,10.50
2010,09,03,06,47,10.50
2010,09,03,06,48,10.40
2010,09,03,06,49,10.40
2010,09,03,06,50,10.40
2010,09,03,06,51,10.40
2010,09,03,06,52,10.40
2010,09,03,06,53,10.40
2010,09,03,06,54,10.40
2010,09,03,06,55,10.40
2010,09,03,06,56,10.40
2010,09,03,06,57,10.40
2010,09,03,06,58,10.50
2010,09,03,06,59,10.50
2010,09,03,07,00,10.50
2010,09,03,07,01,10.50
2010,09,03,07,02,10.50
2010,09,03,07,03,10.50
2010,09,03,07,04,10.60
2010,09,03,07,05,10.60
2010,09,03,07,06,10.60
2010,09,03,07,07,10.60
2010,09,03,07,08,10.70
2010,09,03,07,09,10.70
2010,09,03,07,10,10.70
2010,09,03,07,11,10.80
2010,09,03,07,12,10.80
2010,09,03,07,13,10.80
2010,09,03,07,14,10.80
2010,09,03,07,15,10.90
2010,09,03,07,16,10.90
2010,09,03,07,17,10.90
2010,09,03,07,18,11.00
2010,09,03,07,19,11.10
2010,09,03,07,20,11.10
2010,09,03,07,21,11.20
2010,09,03,07,22,11.20
2010,09,03,07,23,11.30
2010,09,03,07,24,11.40
2010,09,03,07,25,11.50
2010,09,03,07,26,11.50
2010,09,03,07,27,11.60
2010,09,03,07,28,11.70
2010,09,03,07,29,11.80
2010,09,03,07,30,11.80
2010,09,03,07,31,11.90
2010,09,03,07,32,11.90
2010,09,03,07,33,12.00
2010,09,03,07,34,12.00
2010,09,03,07,35,12.00
2010,09,03,07,36,12.10
2010,09,03,07,37,12.10
2010,09,03,07,38,12.10
2010,09,03,07,39,12.10
2010,09,03,07,40,12.20
2010,09,03,07,41,12.20
2010,09,03,07,42,12.30
2010,09,03,07,43,12.30
2010,09,03,07,44,12.40
2010,09,03,07,45,12.50
2010,09,03,07,46,12.60
2010,09,03,07,47,12.70
2010,09,03,07,48,12.90
2010,09,03,07,49,13.00
2010,09,03,07,50,13.10
2010,09,03,07,51,13.20
2010,09,03,07,52,13.30
2010,09,03,07,53,13.40
2010,09,03,07,54,13.50
2010,09,03,07,55,13.50
2010,09,03,07,56,13.60
2010,09,03,07,57,13.60
2010,09,03,07,58,13.70
2010,09,03,07,59,13.70
2010,09,03,08,00,13.80
2010,09,03,08,01,13.80
2010,09,03,08,02,13.90
2010,09,03,08,03,14.00
2010,09,03,08,04,14.00
2010,09,03,08,05,14.10
2010,09,03,08,06,14.10
2010,09,03,08,07,14.20
2010,09,03,08,08,14.20
2010,09,03,08,09,14.30
2010,09,03,08,10,14.40
2010,09,03,08,11,14.40
2010,09,03,08,12,14.50
2010,09,03,08,13,14.60
2010,09,03,08,14,14.70
2010,09,03,08,15,14.80
2010,09,03,08,16,15.00
2010,09,03,08,17,15.00
2010,09,03,08,18,15.20
2010,09,03,08,19,15.50
2010,09,03,08,20,15.60
2010,09,03,08,21,15.80
2010,09,03,08,22,16.00
2010,09,03,08,23,16.20
2010,09,03,08,24,16.40
2010,09,03,08,25,16.50
2010,09,03,08,26,16.70
2010,09,03,08,27,16.80
2010,09,03,08,28,16.90
2010,09,03,08,29,17.10
2010,09,03,08,30,17.20
2010,09,03,08,31,17.20
2010,09,03,08,32,17.30
2010,09,03,08,33,17.40
2010,09,03,08,34,17.50
2010,09,03,08,35,17.60
2010,09,03,08,36,17.70
2010,09,03,08,37,17.70
2010,09,03,08,38,17.80
2010,09,03,08,39,17.80
2010,09,03,08,40,17.80
2010,09,03,08,41,17.80
2010,09,03,08,42,17.80
2010,09,03,08,43,17.90
2010,09,03,08,44,17.90
2010,09,03,08,45,18.00
2010,09,03,08,46,18.10
2010,09,03,08,47,18.10
2010,09,03,08,48,18.30
2010,09,03,08,49,18.40
2010,09,03,08,50,18.50
2010,09,03,08,51,18.60
2010,09,03,08,52,18.70
2010,09,03,08,53,18.80
2010,09,03,08,54,18.90
2010,09,03,08,55,19.00
2010,09,03,08,56,19.10
2010,09,03,08,57,19.20
2010,09,03,08,58,19.30
2010,09,03,08,59,19.30
2010,09,03,09,00,19.30
2010,09,03,09,01,19.20
2010,09,03,09,02,19.20
2010,09,03,09,03,19.20
2010,09,03,09,04,19.20
2010,09,03,09,05,19.20
2010,09,03,09,06,19.20
2010,09,03,09,07,19.20
2010,09,03,09,08,19.20
2010,09,03,09,09,19.20
2010,09,03,09,10,19.20
2010,09,03,09,11,19.20
2010,09,03,09,12,19.30
2010,09,03,09,13,19.30
2010,09,03,09,14,19.30
2010,09,03,09,15,19.30
2010,09,03,09,16,19.30
2010,09,03,09,17,19.20
2010,09,03,09,18,19.20
2010,09,03,09,19,19.20
2010,09,03,09,20,19.20
2010,09,03,09,21,19.30
2010,09,03,09,22,19.30
2010,09,03,09,23,19.40
2010,09,03,09,24,19.40
2010,09,03,09,25,19.50
2010,09,03,09,26,19.60
2010,09,03,09,27,19.60
2010,09,03,09,28,19.70
2010,09,03,09,29,19.70
2010,09,03,09,30,19.70
2010,09,03,09,31,19.60
2010,09,03,09,32,19.50
2010,09,03,09,33,19.40
2010,09,03,09,34,19.30
2010,09,03,09,35,19.30
2010,09,03,09,36,19.20
2010,09,03,09,37,19.10
2010,09,03,09,38,19.10
2010,09,03,09,39,19.00
2010,09,03,09,40,19.00
2010,09,03,09,41,19.00
2010,09,03,09,42,19.00
2010,09,03,09,43,19.00
2010,09,03,09,44,19.10
2010,09,03,09,45,19.10
2010,09,03,09,46,19.10
2010,09,03,09,47,19.10
2010,09,03,09,48,19.10
2010,09,03,09,49,19.20
2010,09,03,09,50,19.20
2010,09,03,09,51,19.20
2010,09,03,09,52,19.30
2010,09,03,09,53,19.40
2010,09,03,09,54,19.40
2010,09,03,09,55,19.50
2010,09,03,09,56,19.50
2010,09,03,09,57,19.50
2010,09,03,09,58,19.40
2010,09,03,09,59,19.40
2010,09,03,10,00,19.30
2010,09,03,10,01,19.20
2010,09,03,10,02,19.20
2010,09,03,10,03,19.20
2010,09,03,10,04,19.20
2010,09,03,10,05,19.20
2010,09,03,10,06,19.20
2010,09,03,10,07,19.10
2010,09,03,10,08,19.10
2010,09,03,10,09,19.10
2010,09,03,10,10,19.00
2010,09,03,10,11,19.00
2010,09,03,10,12,19.10
2010,09,03,10,13,19.10
2010,09,03,10,14,19.10
2010,09,03,10,15,19.10
2010,09,03,10,16,19.10
2010,09,03,10,17,19.20
2010,09,03,10,18,19.20
2010,09,03,10,19,19.10
2010,09,03,10,20,19.10
2010,09,03,10,21,19.00
2010,09,03,10,22,18.90
2010,09,03,10,23,18.90
2010,09,03,10,24,18.90
2010,09,03,10,25,18.90
2010,09,03,10,26,18.90
2010,09,03,10,27,18.90
2010,09,03,10,28,19.00
2010,09,03,10,29,19.10
2010,09,03,10,30,19.10
2010,09,03,10,31,19.10
2010,09,03,10,32,19.10
2010,09,03,10,33,19.10
2010,09,03,10,34,19.10
2010,09,03,10,35,19.20
2010,09,03,10,36,19.20
2010,09,03,10,37,19.30
2010,09,03,10,38,19.30
2010,09,03,10,39,19.30
2010,09,03,10,40,19.20
2010,09,03,10,41,19.20
2010,09,03,10,42,19.10
2010,09,03,10,43,19.00
2010,09,03,10,44,18.90
2010,09,03,10,45,18.80
2010,09,03,10,46,18.80
2010,09,03,10,47,18.80
2010,09,03,10,48,18.80
2010,09,03,10,49,18.90
2010,09,03,10,50,18.90
2010,09,03,10,51,19.00
2010,09,03,10,52,19.10
2010,09,03,10,53,19.10
2010,09,03,10,54,19.20
2010,09,03,10,55,19.30
2010,09,03,10,56,19.40
2010,09,03,10,57,19.50
2010,09,03,10,58,19.60
2010,09,03,10,59,19.60
2010,09,03,11,00,19.70
2010,09,03,11,01,19.70
2010,09,03,11,02,19.80
2010,09,03,11,03,19.80
2010,09,03,11,04,19.90
2010,09,03,11,05,19.90
2010,09,03,11,06,20.00
2010,09,03,11,07,20.00
2010,09,03,11,08,20.00
2010,09,03,11,09,19.90
2010,09,03,11,10,19.90
2010,09,03,11,11,19.90
2010,09,03,11,12,20.00
2010,09,03,11,13,20.00
2010,09,03,11,14,20.10
2010,09,03,11,15,20.10
2010,09,03,11,16,20.20
2010,09,03,11,17,20.30
2010,09,03,11,18,20.40
2010,09,03,11,19,20.40
2010,09,03,11,20,20.40
2010,09,03,11,21,20.40
2010,09,03,11,22,20.40
2010,09,03,11,23,20.50
2010,09,03,11,24,20.50
2010,09,03,11,25,20.50
2010,09,03,11,26,20.50
2010,09,03,11,27,20.50
2010,09,03,11,28,20.50
2010,09,03,11,29,20.60
2010,09,03,11,30,20.60
2010,09,03,11,31,20.60
2010,09,03,11,32,20.60
2010,09,03,11,33,20.60
2010,09,03,11,34,20.60
2010,09,03,11,35,20.50
2010,09,03,11,36,20.50
2010,09,03,11,37,20.50
2010,09,03,11,38,20.50
2010,09,03,11,39,20.60
2010,09,03,11,40,20.50
2010,09,03,11,41,20.50
2010,09,03,11,42,20.50
2010,09,03,11,43,20.50
2010,09,03,11,44,20.50
2010,09,03,11,45,20.60
2010,09,03,11,46,20.60
2010,09,03,11,47,20.60
2010,09,03,11,48,20.60
2010,09,03,11,49,20.70
2010,09,03,11,50,20.70
2010,09,03,11,51,20.70
2010,09,03,11,52,20.70
2010,09,03,11,53,20.70
2010,09,03,11,54,20.80
2010,09,03,11,55,20.70
2010,09,03,11,56,20.70
2010,09,03,11,57,20.70
2010,09,03,11,58,20.70
2010,09,03,11,59,20.70
2010,09,03,12,00,20.70
2010,09,03,12,01,20.80
2010,09,03,12,02,20.80
2010,09,03,12,03,20.90
2010,09,03,12,04,20.90
2010,09,03,12,05,20.90
2010,09,03,12,06,21.00
2010,09,03,12,07,21.00
2010,09,03,12,08,21.10
2010,09,03,12,09,21.10
2010,09,03,12,10,21.10
2010,09,03,12,11,21.10
2010,09,03,12,12,21.10
2010,09,03,12,13,21.20
2010,09,03,12,14,21.30
2010,09,03,12,15,21.30
2010,09,03,12,16,21.40
2010,09,03,12,17,21.50
2010,09,03,12,18,21.60
2010,09,03,12,19,21.60
2010,09,03,12,20,21.50
2010,09,03,12,21,21.40
2010,09,03,12,22,21.20
2010,09,03,12,23,21.10
2010,09,03,12,24,21.00
2010,09,03,12,25,20.90
2010,09,03,12,26,20.90
2010,09,03,12,27,20.90
2010,09,03,12,28,20.90
2010,09,03,12,29,20.80
2010,09,03,12,30,20.70
2010,09,03,12,31,20.70
2010,09,03,12,32,20.70
2010,09,03,12,33,20.60
2010,09,03,12,34,20.60
2010,09,03,12,35,20.50
2010,09,03,12,36,20.40
2010,09,03,12,37,20.40
2010,09,03,12,38,20.50
2010,09,03,12,39,20.60
2010,09,03,12,40,20.70
2010,09,03,12,41,20.80
2010,09,03,12,42,20.90
2010,09,03,12,43,21.00
2010,09,03,12,44,21.10
2010,09,03,12,45,21.20
2010,09,03,12,46,21.30
2010,09,03,12,47,21.40
2010,09,03,12,48,21.50
2010,09,03,12,49,21.50
2010,09,03,12,50,21.40
2010,09,03,12,51,21.30
2010,09,03,12,52,21.20
2010,09,03,12,53,21.20
2010,09,03,12,54,21.20
2010,09,03,12,55,21.20
2010,09,03,12,56,21.30
2010,09,03,12,57,21.30
2010,09,03,12,58,21.30
2010,09,03,12,59,21.40
2010,09,03,13,00,21.50
2010,09,03,13,01,21.60
2010,09,03,13,02,21.70
2010,09,03,13,03,21.90
2010,09,03,13,04,22.10
2010,09,03,13,05,22.30
2010,09,03,13,06,22.40
2010,09,03,13,07,22.50
2010,09,03,13,08,22.60
2010,09,03,13,09,22.60
2010,09,03,13,10,22.70
2010,09,03,13,11,22.70
2010,09,03,13,12,22.80
2010,09,03,13,13,22.80
2010,09,03,13,14,22.80
2010,09,03,13,15,22.90
2010,09,03,13,16,22.90
2010,09,03,13,17,23.00
2010,09,03,13,18,23.20
2010,09,03,13,19,23.20
2010,09,03,13,20,23.20
2010,09,03,13,21,23.30
2010,09,03,13,22,23.30
2010,09,03,13,23,23.20
2010,09,03,13,24,23.30
2010,09,03,13,25,23.30
2010,09,03,13,26,23.30
2010,09,03,13,27,23.30
2010,09,03,13,28,23.30
2010,09,03,13,29,23.30
2010,09,03,13,30,23.40
2010,09,03,13,31,23.50
2010,09,03,13,32,23.60
2010,09,03,13,33,23.60
2010,09,03,13,34,23.60
2010,09,03,13,35,23.60
2010,09,03,13,36,23.70
2010,09,03,13,37,23.50
2010,09,03,13,38,23.50
2010,09,03,13,39,23.50
2010,09,03,13,40,23.50
2010,09,03,13,41,23.50
2010,09,03,13,42,23.40
2010,09,03,13,43,23.40
2010,09,03,13,44,23.30
2010,09,03,13,45,23.20
2010,09,03,13,46,23.20
2010,09,03,13,47,23.20
2010,09,03,13,48,23.20
2010,09,03,13,49,23.20
2010,09,03,13,50,23.20
2010,09,03,13,51,23.30
2010,09,03,13,52,23.40
2010,09,03,13,53,23.50
2010,09,03,13,54,23.60
2010,09,03,13,55,23.60
2010,09,03,13,56,23.60
2010,09,03,13,57,23.60
2010,09,03,13,58,23.60
2010,09,03,13,59,23.60
2010,09,03,14,00,23.70
2010,09,03,14,01,23.70
2010,09,03,14,02,23.70
2010,09,03,14,03,23.70
2010,09,03,14,04,23.70
2010,09,03,14,05,23.60
2010,09,03,14,06,23.50
2010,09,03,14,07,23.50
2010,09,03,14,08,23.40
2010,09,03,14,09,23.40
2010,09,03,14,10,23.30
2010,09,03,14,11,23.20
2010,09,03,14,12,23.10
2010,09,03,14,13,23.10
2010,09,03,14,14,23.10
2010,09,03,14,15,23.10
2010,09,03,14,16,23.20
2010,09,03,14,17,23.20
2010,09,03,14,18,23.10
2010,09,03,14,19,23.00
2010,09,03,14,20,23.00
2010,09,03,14,21,23.00
2010,09,03,14,22,23.10
2010,09,03,14,23,23.10
2010,09,03,14,24,23.20
2010,09,03,14,25,23.20
2010,09,03,14,26,23.30
2010,09,03,14,27,23.40
2010,09,03,14,28,23.50
2010,09,03,14,29,23.60
2010,09,03,14,30,23.70
2010,09,03,14,31,23.70
2010,09,03,14,32,23.70
2010,09,03,14,33,23.70
2010,09,03,14,34,23.70
2010,09,03,14,35,23.80
2010,09,03,14,36,23.80
2010,09,03,14,37,23.80
2010,09,03,14,38,23.80
2010,09,03,14,39,23.80
2010,09,03,14,40,23.70
2010,09,03,14,41,23.70
2010,09,03,14,42,23.70
2010,09,03,14,43,23.70
2010,09,03,14,44,23.80
2010,09,03,14,45,23.90
2010,09,03,14,46,23.90
2010,09,03,14,47,23.80
2010,09,03,14,48,23.80
2010,09,03,14,49,23.70
2010,09,03,14,50,23.70
2010,09,03,14,51,23.80
2010,09,03,14,52,23.70
2010,09,03,14,53,23.60
2010,09,03,14,54,23.60
2010,09,03,14,55,23.70
2010,09,03,14,56,23.70
2010,09,03,14,57,23.70
2010,09,03,14,58,23.70
2010,09,03,14,59,23.80
2010,09,03,15,00,23.80
2010,09,03,15,01,23.80
2010,09,03,15,02,23.80
2010,09,03,15,03,23.70
2010,09,03,15,04,23.70
2010,09,03,15,05,23.60
2010,09,03,15,06,23.60
2010,09,03,15,07,23.60
2010,09,03,15,08,23.70
2010,09,03,15,09,23.80
2010,09,03,15,10,23.90
2010,09,03,15,11,24.00
2010,09,03,15,12,24.10
2010,09,03,15,13,24.10
2010,09,03,15,14,24.10
2010,09,03,15,15,24.10
2010,09,03,15,16,24.10
2010,09,03,15,17,24.10
2010,09,03,15,18,24.10
2010,09,03,15,19,23.90
2010,09,03,15,20,23.80
2010,09,03,15,21,23.90
2010,09,03,15,22,24.00
2010,09,03,15,23,24.00
2010,09,03,15,24,24.00
2010,09,03,15,25,24.00
2010,09,03,15,26,23.80
2010,09,03,15,27,23.80
2010,09,03,15,28,23.70
2010,09,03,15,29,23.60
2010,09,03,15,30,23.60
2010,09,03,15,31,23.60
2010,09,03,15,32,23.50
2010,09,03,15,33,23.40
2010,09,03,15,34,23.30
2010,09,03,15,35,23.10
2010,09,03,15,36,23.10
2010,09,03,15,37,23.20
2010,09,03,15,38,23.20
2010,09,03,15,39,23.30
2010,09,03,15,40,23.20
2010,09,03,15,41,23.30
2010,09,03,15,42,23.20
2010,09,03,15,43,23.30
2010,09,03,15,44,23.30
2010,09,03,15,45,23.20
2010,09,03,15,46,23.20
2010,09,03,15,47,23.20
2010,09,03,15,48,23.20
2010,09,03,15,49,23.20
2010,09,03,15,50,23.30
2010,09,03,15,51,23.40
2010,09,03,15,52,23.50
2010,09,03,15,53,23.60
2010,09,03,15,54,23.70
2010,09,03,15,55,23.70
2010,09,03,15,56,23.80
2010,09,03,15,57,23.80
2010,09,03,15,58,23.80
2010,09,03,15,59,23.80
2010,09,03,16,00,23.90
2010,09,03,16,01,23.90
2010,09,03,16,02,24.00
2010,09,03,16,03,24.10
2010,09,03,16,04,24.10
2010,09,03,16,05,24.20
2010,09,03,16,06,24.30
2010,09,03,16,07,24.30
2010,09,03,16,08,24.30
2010,09,03,16,09,24.30
2010,09,03,16,10,24.30
2010,09,03,16,11,24.30
2010,09,03,16,12,24.30
2010,09,03,16,13,24.30
2010,09,03,16,14,24.30
2010,09,03,16,15,24.30
2010,09,03,16,16,24.30
2010,09,03,16,17,24.30
2010,09,03,16,18,24.20
2010,09,03,16,19,24.30
2010,09,03,16,20,24.50
2010,09,03,16,21,24.60
2010,09,03,16,22,24.70
2010,09,03,16,23,24.70
2010,09,03,16,24,24.70
2010,09,03,16,25,24.70
2010,09,03,16,26,24.60
2010,09,03,16,27,24.50
2010,09,03,16,28,24.50
2010,09,03,16,29,24.50
2010,09,03,16,30,24.40
2010,09,03,16,31,24.50
2010,09,03,16,32,24.60
2010,09,03,16,33,24.70
2010,09,03,16,34,24.70
2010,09,03,16,35,24.70
2010,09,03,16,36,24.80
2010,09,03,16,37,24.90
2010,09,03,16,38,24.90
2010,09,03,16,39,25.00
2010,09,03,16,40,25.00
2010,09,03,16,41,24.90
2010,09,03,16,42,24.90
2010,09,03,16,43,24.90
2010,09,03,16,44,24.90
2010,09,03,16,45,24.80
2010,09,03,16,46,24.80
2010,09,03,16,47,24.80
2010,09,03,16,48,24.80
2010,09,03,16,49,24.80
2010,09,03,16,50,24.80
2010,09,03,16,51,24.90
2010,09,03,16,52,24.90
2010,09,03,16,53,24.90
2010,09,03,16,54,24.90
2010,09,03,16,55,24.90
2010,09,03,16,56,24.90
2010,09,03,16,57,24.90
2010,09,03,16,58,24.80
2010,09,03,16,59,24.70
2010,09,03,17,00,24.60
2010,09,03,17,01,24.50
2010,09,03,17,02,24.40
2010,09,03,17,03,24.30
2010,09,03,17,04,24.20
2010,09,03,17,05,24.10
2010,09,03,17,06,24.10
2010,09,03,17,07,23.90
2010,09,03,17,08,23.80
2010,09,03,17,09,23.70
2010,09,03,17,10,23.70
2010,09,03,17,11,23.60
2010,09,03,17,12,23.60
2010,09,03,17,13,23.50
2010,09,03,17,14,23.50
2010,09,03,17,15,23.50
2010,09,03,17,16,23.50
2010,09,03,17,17,23.50
2010,09,03,17,18,23.50
2010,09,03,17,19,23.50